1507395600.72,29982,12.5,73346.5,-7.91,-9.11,-9.11,0,*57
1507395601.96,29983,12.5,73344.5,-7.91,-9.01,-9.01,0,*56
1507395603.24,29984,12.5,73346.8,-7.91,-9.11,-9.11,0,*51
1507395604.5,29985,12.5,73344.5,-7.91,-9.01,-9.11,0,*51
1507395605.78,29986,12.5,73344.8,-7.91,-9.11,-9.11,0,*53
1507395607.04,29987,12.5,73344.0,-7.91,-9.11,-9.01,0,*53
1507395608.27,29988,12.5,73346.8,-7.91,-9.01,-9.01,0,*5D
1507395609.53,29989,12.5,73346.0,-7.91,-9.11,-9.01,0,*5D
1507395610.79,29990,12.5,73346.3,-7.91,-9.11,-9.01,0,*55
1507395612.07,29991,12.5,73346.8,-7.91,-9.11,-9.11,0,*55
1507395613.33,29992,12.5,73346.0,-7.91,-9.11,-9.01,0,*57
1507395614.56,29993,12.5,73346.3,-7.93,-9.15,-9.05,0,*54
1507395615.79,29994,12.5,73348.0,-7.91,-9.01,-9.01,0,*50
1507395617.02,29995,12.5,73346.3,-7.93,-9.15,-9.05,0,*52
1507395618.28,29996,12.5,73346.0,-7.91,-9.11,-9.01,0,*53
1507395619.53,29997,12.5,73346.3,-7.91,-9.11,-9.01,0,*52
1507395620.79,29998,12.5,73348.0,-7.91,-9.01,-9.11,0,*5D
1507395622.02,29999,12.5,73348.0,-7.93,-9.15,-9.05,0,*5E
1507395623.28,30000,12.5,73344.3,-7.91,-9.11,-9.01,0,*5D
1507395624.51,30001,12.5,73340.3,-7.91,-9.01,-9.01,0,*5D
1507395625.77,30002,12.5,73342.5,-7.91,-9.11,-9.01,0,*5F
1507395627.0,30003,12.5,73346.0,-7.91,-9.01,-8.97,0,*51
1507395628.28,30004,12.5,73342.5,-7.91,-9.11,-9.11,0,*58
1507395629.54,30005,12.5,73344.8,-7.91,-9.11,-9.01,0,*58
1507395630.8,30006,12.5,73344.3,-7.91,-9.11,-9.01,0,*5B
1507395632.05,30007,12.5,73346.5,-7.91,-9.11,-8.97,0,*54
1507395633.28,30008,12.5,73348.5,-7.93,-9.15,-9.05,0,*57
1507395634.54,30009,12.5,73348.0,-7.91,-9.11,-9.01,0,*54
1507395635.79,30010,12.5,73344.5,-7.91,-9.11,-8.97,0,*52
1507395637.05,30011,12.5,73346.3,-7.91,-9.11,-9.01,0,*5D
1507395638.31,30012,12.5,73344.0,-7.91,-9.11,-9.01,0,*5E
1507395639.54,30013,12.5,73344.5,-7.91,-9.01,-9.01,0,*5E
1507395640.8,30014,12.5,73346.3,-7.91,-9.11,-9.01,0,*58
1507395642.04,30015,12.5,73346.5,-7.91,-9.01,-9.01,0,*58
1507395643.3,30016,12.5,73346.0,-7.91,-9.11,-9.01,0,*5A
1507395644.55,30017,12.5,73346.3,-7.91,-9.11,-8.97,0,*55
1507395645.75,30018,12.5,73350.8,-7.93,-9.01,-8.97,0,*59
1507395646.95,30019,12.5,73346.8,-7.93,-9.05,-9.01,0,*52
1507395648.18,30020,12.5,73350.0,-7.91,-9.01,-8.97,0,*50
1507395649.41,30021,12.5,73350.8,-7.91,-8.97,-8.97,0,*5F
1507395650.66,30022,12.5,73350.5,-7.91,-9.11,-8.97,0,*53
1507395651.91,30023,12.5,73348.5,-7.91,-9.11,-8.97,0,*52
1507395653.14,30024,12.5,73348.5,-7.91,-9.01,-8.97,0,*54
1507395654.38,30025,12.5,73348.3,-7.91,-9.01,-8.89,0,*5A
1507395655.63,30026,12.5,73352.0,-7.91,-9.11,-8.97,0,*57
1507395656.86,30027,12.5,73352.0,-7.91,-9.01,-8.97,0,*57
1507395658.12,30028,12.5,73350.0,-7.91,-9.11,-8.97,0,*59
1507395659.37,30029,12.5,73354.5,-7.91,-9.11,-8.97,0,*58
1507395660.6,30030,12.5,73350.5,-7.91,-9.01,-8.97,0,*51
1507395661.84,30031,12.5,73348.3,-7.91,-9.01,-9.01,0,*5E
1507395663.07,30032,12.5,73348.5,-7.91,-9.01,-9.01,0,*5D
1507395664.32,30033,12.5,73348.3,-7.91,-9.11,-8.97,0,*53
1507395665.55,30034,12.5,73350.8,-7.91,-9.01,-8.97,0,*55
1507395666.79,30035,12.5,73348.5,-7.91,-9.01,-8.97,0,*54
1507395667.99,30036,12.5,73348.3,-7.93,-9.01,-8.97,0,*55
1507395669.21,30037,12.5,73348.3,-7.91,-8.97,-8.97,0,*58
1507395670.44,30038,12.5,73348.8,-7.91,-9.01,-8.97,0,*59
1507395671.67,30039,12.5,73352.3,-7.91,-9.01,-8.97,0,*58
1507395672.87,30040,12.5,73350.3,-7.89,-9.01,-8.97,0,*5F
1507395674.08,30041,12.5,73348.3,-7.89,-9.01,-9.01,0,*50
1507395675.31,30042,12.5,73350.0,-7.89,-9.01,-9.11,0,*52
1507395676.54,30043,12.5,73348.3,-7.89,-9.11,-9.01,0,*53
1507395677.78,30044,12.5,73348.5,-7.91,-9.01,-9.01,0,*5C
1507395679.01,30045,12.5,73350.3,-7.89,-9.11,-9.01,0,*55
1507395680.24,30046,12.5,73348.5,-7.89,-9.11,-8.97,0,*58
1507395681.46,30047,12.5,73348.0,-7.85,-8.97,-8.97,0,*5A
1507395682.67,30048,12.5,73350.3,-7.89,-9.01,-8.97,0,*57
1507395683.89,30049,12.5,73354.0,-7.89,-9.11,-8.97,0,*57
1507395685.1,30050,12.5,73350.0,-7.89,-9.01,-8.97,0,*5E
1507395686.3,30051,12.5,73348.0,-7.89,-9.01,-8.97,0,*5F
1507395687.5,30052,12.5,73348.0,-7.89,-9.01,-8.97,0,*5C
1507395688.71,30053,12.5,73346.3,-7.89,-9.01,-9.01,0,*53
1507395689.94,30054,12.5,73348.3,-7.89,-9.11,-9.01,0,*55
1507395691.15,30055,12.5,73348.3,-7.89,-9.01,-9.01,0,*55
1507395692.36,30056,12.5,73350.3,-7.89,-9.01,-9.01,0,*56
1507395693.59,30057,12.5,73348.5,-7.89,-9.11,-9.01,0,*56
1507395694.83,30058,12.5,73352.8,-7.91,-9.01,-9.01,0,*51
1507395696.04,30059,12.5,73348.8,-7.89,-9.01,-9.01,0,*59
1507395697.26,30060,12.5,73354.8,-7.89,-9.11,-8.97,0,*5C
1507395698.49,30061,12.5,73354.3,-7.89,-9.01,-9.11,0,*53
1507395699.72,30062,12.5,73354.3,-7.89,-9.11,-8.97,0,*5E
1507395700.93,30063,12.5,73354.8,-7.89,-9.01,-9.01,0,*50
1507395702.16,30064,12.5,73356.0,-7.89,-9.11,-9.01,0,*56
1507395703.38,30065,12.5,73352.5,-7.85,-8.97,-8.97,0,*5A
1507395704.62,30066,12.5,73350.8,-7.89,-9.11,-9.01,0,*54
1507395705.85,30067,12.5,73352.0,-7.89,-9.11,-9.01,0,*55
1507395707.08,30068,12.5,73350.8,-7.89,-9.11,-8.97,0,*54
1507395708.31,30069,12.5,73352.3,-7.89,-9.01,-9.11,0,*5B
1507395709.59,30070,12.5,73350.3,-7.91,-9.11,-9.11,0,*5B
1507395710.82,30071,12.5,73356.0,-7.89,-9.01,-9.11,0,*52
1507395712.05,30072,12.5,73352.5,-7.89,-9.01,-9.11,0,*51
1507395713.26,30073,12.5,73352.8,-7.89,-9.01,-9.01,0,*51
1507395714.49,30074,12.5,73352.3,-7.89,-9.11,-9.01,0,*57
1507395715.72,30075,12.5,73354.0,-7.85,-9.05,-8.97,0,*51
1507395716.94,30076,12.5,73350.8,-7.85,-9.05,-8.97,0,*52
1507395718.18,30077,12.5,73352.8,-7.89,-9.11,-9.01,0,*54
1507395719.41,30078,12.5,73350.5,-7.89,-9.11,-9.01,0,*5B
1507395720.67,30079,12.5,73352.0,-7.91,-9.11,-9.01,0,*53
1507395721.95,30080,12.5,73350.5,-7.91,-9.11,-9.11,0,*54
1507395723.18,30081,12.5,73354.0,-7.89,-9.01,-9.11,0,*5D
1507395724.41,30082,12.5,73348.3,-7.85,-9.05,-9.05,0,*53
1507395725.64,30083,12.5,73348.8,-7.89,-9.15,-9.01,0,*5B
1507395726.88,30084,12.5,73348.5,-7.89,-9.15,-9.01,0,*5C
1507395728.08,30085,12.5,73354.3,-7.89,-9.01,-9.01,0,*58
1507395729.37,30086,12.5,73348.5,-7.91,-9.11,-9.11,0,*52
1507395730.65,30087,12.5,73350.0,-7.91,-9.11,-9.11,0,*53
1507395731.9,30088,12.5,73352.5,-7.89,-9.11,-9.11,0,*55
1507395733.13,30089,12.5,73354.0,-7.89,-9.11,-9.01,0,*55
1507395734.36,30090,12.5,73352.5,-7.89,-9.11,-9.01,0,*5D
1507395735.62,30091,12.5,73352.3,-7.91,-9.15,-9.01,0,*51
1507395736.91,30092,12.5,73348.3,-7.91,-9.11,-9.11,0,*57
1507395738.19,30093,12.5,73354.3,-7.91,-9.11,-9.11,0,*56
1507395739.4,30094,12.5,73354.3,-7.89,-9.01,-9.01,0,*58
1507395740.65,30095,12.5,73352.5,-7.89,-9.11,-9.15,0,*5D
1507395741.88,30096,12.5,73352.0,-7.89,-9.11,-9.01,0,*5B
1507395743.11,30097,12.5,73350.8,-7.89,-9.11,-9.01,0,*5A
1507395744.36,30098,12.5,73354.8,-7.89,-9.11,-9.11,0,*54
1507395745.57,30099,12.5,73354.3,-7.89,-9.23,-9.01,0,*55
1507395746.82,30100,12.5,73352.8,-7.89,-9.11,-9.11,0,*54
1507395748.06,30101,12.5,73350.8,-7.89,-9.15,-9.01,0,*50
1507395749.31,30102,12.5,73350.0,-7.89,-9.11,-9.11,0,*56
1507395750.56,30103,12.5,73350.8,-7.89,-9.11,-9.11,0,*57
1507395751.82,30104,12.5,73348.3,-7.89,-9.15,-9.11,0,*54
1507395753.1,30105,12.5,73350.5,-7.91,-9.15,-9.11,0,*5C
1507395754.36,30106,12.5,73350.8,-7.89,-9.15,-9.11,0,*56
1507395755.59,30107,12.5,73352.3,-7.89,-9.23,-9.11,0,*52
1507395756.84,30108,12.5,73352.5,-7.89,-9.15,-9.15,0,*5C
1507395758.1,30109,12.5,73352.0,-7.89,-9.15,-9.11,0,*59
1507395759.38,30110,12.5,73354.0,-7.91,-9.11,-9.11,0,*5C
1507395760.66,30111,12.5,73352.3,-7.91,-9.15,-9.11,0,*59
1507395761.91,30112,12.5,73350.8,-7.91,-9.23,-9.11,0,*5F
1507395763.19,30113,12.5,73352.8,-7.91,-9.15,-9.11,0,*5B
1507395764.48,30114,12.5,73352.8,-7.91,-9.15,-9.11,0,*5C
1507395765.76,30115,12.5,73358.8,-7.91,-9.15,-9.11,0,*5D
1507395767.04,30116,12.5,73354.0,-7.91,-9.11,-9.11,0,*5A
1507395768.29,30117,12.5,73354.0,-7.91,-9.23,-9.11,0,*5A
1507395769.55,30118,12.5,73352.8,-7.89,-9.15,-9.11,0,*59
1507395770.8,30119,12.5,73350.8,-7.89,-9.15,-9.15,0,*5C
1507395772.06,30120,12.5,73354.3,-7.89,-9.15,-9.11,0,*52
1507395773.31,30121,12.5,73354.3,-7.91,-9.23,-9.11,0,*5F
1507395774.6,30122,12.5,73352.8,-7.91,-9.15,-9.11,0,*59
1507395775.88,30123,12.5,73352.8,-7.91,-9.15,-9.11,0,*58
1507395777.13,30124,12.5,73352.3,-7.91,-9.23,-9.11,0,*5A
1507395778.42,30125,12.5,73354.5,-7.91,-9.15,-9.11,0,*5E
1507395779.7,30126,12.5,73354.3,-7.91,-9.15,-9.11,0,*5D
1507395780.98,30127,12.5,73352.0,-7.91,-9.15,-9.11,0,*5C
1507395782.23,30128,12.5,73352.5,-7.91,-9.23,-9.11,0,*56
1507395783.49,30129,12.5,73354.3,-7.91,-9.23,-9.11,0,*57
1507395784.77,30130,12.5,73352.3,-7.91,-9.15,-9.11,0,*5A
1507395786.05,30131,12.5,73354.8,-7.91,-9.15,-9.11,0,*5B
1507395787.34,30132,12.5,73354.5,-7.91,-9.15,-9.11,0,*58
1507395788.62,30133,12.5,73352.8,-7.91,-9.15,-9.11,0,*59
1507395789.9,30134,12.5,73352.3,-7.91,-9.15,-9.11,0,*5E
1507395791.1,30135,12.5,73352.3,-7.93,-9.19,-9.19,0,*59
1507395792.35,30136,12.5,73354.3,-7.91,-9.23,-9.11,0,*59
1507395793.6,30137,12.5,73352.0,-7.91,-9.23,-9.15,0,*5C
1507395794.88,30138,12.5,73358.0,-7.91,-9.15,-9.15,0,*56
1507395796.16,30139,12.5,73352.3,-7.91,-9.15,-9.15,0,*57
1507395797.44,30140,12.5,73354.5,-7.91,-9.15,-9.11,0,*5D
1507395798.72,30141,12.5,73350.8,-7.91,-9.15,-9.11,0,*5C
1507395800.0,30142,12.5,73354.8,-7.91,-9.15,-9.15,0,*5B
1507395801.27,30143,12.5,73352.5,-7.91,-9.15,-9.01,0,*5F
1507395802.55,30144,12.5,73350.0,-7.91,-9.15,-9.15,0,*5D
1507395803.83,30145,12.5,73354.0,-7.91,-9.15,-9.15,0,*5C
1507395805.11,30146,12.5,73350.0,-7.91,-9.15,-9.15,0,*5F
1507395806.39,30147,12.5,73354.3,-7.91,-9.15,-9.15,0,*5E
1507395807.67,30148,12.5,73352.5,-7.91,-9.15,-9.11,0,*55
1507395808.95,30149,12.5,73352.3,-7.91,-9.15,-9.11,0,*54
1507395810.24,30150,12.5,73352.8,-7.91,-9.15,-9.11,0,*5C
1507395811.52,30151,12.5,73354.0,-7.91,-9.15,-9.15,0,*59
1507395812.77,30152,12.5,73350.3,-7.89,-9.15,-9.15,0,*53
1507395814.02,30153,12.5,73354.8,-7.91,-9.23,-9.11,0,*5A
1507395815.3,30154,12.5,73354.3,-7.91,-9.15,-9.15,0,*5C
1507395816.55,30155,12.5,73352.0,-7.91,-9.23,-9.15,0,*58
1507395817.83,30156,12.5,73352.8,-7.91,-9.15,-9.11,0,*5A
1507395819.09,30157,12.5,73350.0,-7.91,-9.23,-9.11,0,*5E
1507395820.37,30158,12.5,73350.5,-7.91,-9.15,-9.15,0,*50
1507395821.62,30159,12.5,73350.8,-7.91,-9.23,-9.15,0,*54
1507395822.86,30160,12.5,73350.5,-7.91,-9.23,-9.15,0,*5E
1507395824.15,30161,12.5,73350.5,-7.91,-9.15,-9.11,0,*5E
1507395825.37,30162,12.5,73350.0,-7.93,-9.19,-9.15,0,*57
1507395826.65,30163,12.5,73354.5,-7.91,-9.15,-9.15,0,*58
1507395827.9,30164,12.5,73354.0,-7.91,-9.23,-9.15,0,*5A
1507395829.18,30165,12.5,73350.0,-7.91,-9.15,-9.15,0,*5E
1507395830.43,30166,12.5,73354.3,-7.91,-9.15,-9.23,0,*58
1507395831.71,30167,12.5,73348.0,-7.91,-9.15,-9.15,0,*5C
1507395832.97,30168,12.5,73352.0,-7.91,-9.15,-9.23,0,*56
1507395834.16,30169,12.5,73350.3,-7.93,-9.27,-9.27,0,*50
1507395835.35,30170,12.5,73350.8,-7.93,-9.19,-9.19,0,*58
1507395836.63,30171,12.5,73354.8,-7.91,-9.15,-9.15,0,*5B
1507395837.92,30172,12.5,73352.8,-7.91,-9.15,-9.15,0,*58
1507395839.16,30173,12.5,73350.8,-7.91,-9.23,-9.15,0,*5C
1507395840.42,30174,12.5,73350.8,-7.91,-9.23,-9.11,0,*5F
1507395841.7,30175,12.5,73350.0,-7.91,-9.15,-9.15,0,*5F
1507395842.95,30176,12.5,73354.0,-7.91,-9.23,-9.15,0,*59
1507395844.23,30177,12.5,73350.8,-7.91,-9.15,-9.11,0,*59
1507395845.48,30178,12.5,73350.3,-7.91,-9.15,-9.23,0,*57
1507395846.77,30179,12.5,73350.8,-7.91,-9.15,-9.11,0,*57
1507395848.02,30180,12.5,73354.8,-7.93,-9.15,-9.11,0,*53
1507395849.24,30181,12.5,73348.5,-7.93,-9.27,-9.15,0,*57
1507395850.43,30182,12.5,73354.0,-7.93,-9.19,-9.19,0,*55
1507395851.68,30183,12.5,73350.8,-7.91,-9.23,-9.11,0,*57
1507395852.94,30184,12.5,73350.0,-7.91,-9.23,-9.11,0,*50
1507395854.18,30185,12.5,73352.8,-7.91,-9.23,-9.15,0,*55
1507395855.46,30186,12.5,73352.3,-7.91,-9.15,-9.15,0,*53
1507395856.66,30187,12.5,73352.8,-7.93,-9.27,-9.19,0,*5D
1507395857.91,30188,12.5,73352.5,-7.91,-9.23,-9.11,0,*5C
1507395859.13,30189,12.5,73350.5,-7.93,-9.19,-9.15,0,*52
1507395860.32,30190,12.5,73354.0,-7.93,-9.19,-9.19,0,*56
1507395861.6,30191,12.5,73350.8,-7.91,-9.15,-9.15,0,*55
1507395862.83,30192,12.5,73350.8,-7.91,-9.23,-9.01,0,*56
1507395864.11,30193,12.5,73352.3,-7.91,-9.15,-9.15,0,*57
1507395865.39,30194,12.5,73348.8,-7.91,-9.15,-9.15,0,*50
1507395866.64,30195,12.5,73348.8,-7.91,-9.23,-9.15,0,*54
1507395867.86,30196,12.5,73352.8,-7.91,-9.23,-9.23,0,*52
1507395869.11,30197,12.5,73348.3,-7.91,-9.23,-9.15,0,*56
1507395870.36,30198,12.5,73350.8,-7.91,-9.23,-9.15,0,*59
1507395871.55,30199,12.5,73350.5,-7.93,-9.19,-9.19,0,*5F
1507395872.83,30200,12.5,73350.8,-7.91,-9.15,-9.15,0,*5E
1507395874.03,30201,12.5,73354.3,-7.93,-9.27,-9.19,0,*50
1507395875.22,30202,12.5,73350.5,-7.93,-9.19,-9.19,0,*5E
1507395876.5,30203,12.5,73352.3,-7.91,-9.15,-9.15,0,*5D
1507395877.78,30204,12.5,73352.0,-7.91,-9.15,-9.15,0,*5A
1507395879.06,30205,12.5,73350.3,-7.91,-9.15,-9.15,0,*5B
1507395880.31,30206,12.5,73348.3,-7.91,-9.23,-9.15,0,*5D
1507395881.59,30207,12.5,73350.8,-7.91,-9.15,-9.11,0,*5D
1507395882.81,30208,12.5,73352.3,-7.93,-9.27,-9.15,0,*55
1507395884.07,30209,12.5,73354.8,-7.91,-9.23,-9.11,0,*56
1507395885.26,30210,12.5,73348.0,-7.93,-9.27,-9.19,0,*50
1507395886.48,30211,12.5,73350.3,-7.91,-9.23,-9.23,0,*5E
1507395887.7,30212,12.5,73350.0,-7.93,-9.19,-9.15,0,*53
1507395888.89,30213,12.5,73348.5,-7.93,-9.19,-9.19,0,*5E
1507395890.17,30214,12.5,73354.5,-7.91,-9.15,-9.15,0,*5B
1507395891.43,30215,12.5,73350.3,-7.91,-9.15,-9.23,0,*5F
1507395892.62,30216,12.5,73350.5,-7.93,-9.19,-9.19,0,*5B
1507395893.87,30217,12.5,73350.8,-7.91,-9.23,-9.15,0,*5D
1507395895.15,30218,12.5,73350.8,-7.91,-9.15,-9.15,0,*57
1507395896.4,30219,12.5,73348.3,-7.91,-9.23,-9.15,0,*53
1507395897.68,30220,12.5,73350.0,-7.91,-9.15,-9.15,0,*5C
1507395898.87,30221,12.5,73348.0,-7.93,-9.27,-9.19,0,*52
1507395900.07,30222,12.5,73352.5,-7.93,-9.19,-9.19,0,*5C
1507395901.26,30223,12.5,73354.0,-7.93,-9.19,-9.19,0,*5D
1507395902.51,30224,12.5,73350.3,-7.91,-9.23,-9.11,0,*59
1507395903.73,30225,12.5,73348.8,-7.93,-9.19,-9.15,0,*57
1507395904.95,30226,12.5,73352.5,-7.93,-9.19,-9.15,0,*54
1507395906.23,30227,12.5,73352.3,-7.91,-9.15,-9.15,0,*5B
1507395907.49,30228,12.5,73352.5,-7.91,-9.15,-9.23,0,*51
1507395908.74,30229,12.5,73352.3,-7.91,-9.23,-9.11,0,*54
1507395910.02,30230,12.5,73354.5,-7.91,-9.15,-9.11,0,*59
1507395911.24,30231,12.5,73352.8,-7.93,-9.19,-9.15,0,*52
1507395912.47,30232,12.5,73354.0,-7.93,-9.15,-9.05,0,*5C
1507395913.69,30233,12.5,73352.0,-7.93,-9.27,-9.15,0,*5D
1507395914.88,30234,12.5,73352.3,-7.93,-9.19,-9.19,0,*5B
1507395916.1,30235,12.5,73354.5,-7.93,-9.19,-9.15,0,*56
1507395917.32,30236,12.5,73354.0,-7.93,-9.19,-9.15,0,*55
1507395918.54,30237,12.5,73348.3,-7.93,-9.27,-9.15,0,*59
1507395919.82,30238,12.5,73354.5,-7.91,-9.11,-9.15,0,*51
1507395921.01,30239,12.5,73352.8,-7.93,-9.19,-9.05,0,*5B
1507395922.24,30240,12.5,73352.5,-7.93,-9.15,-9.27,0,*59
1507395923.46,30241,12.5,73354.0,-7.93,-9.19,-9.15,0,*55
1507395924.68,30242,12.5,73352.5,-7.93,-9.19,-9.15,0,*56
1507395925.9,30243,12.5,73352.5,-7.93,-9.27,-9.15,0,*5A
1507395927.09,30244,12.5,73354.0,-7.93,-9.19,-9.19,0,*5C
1507395928.28,30245,12.5,73354.5,-7.93,-9.19,-9.19,0,*5D
1507395929.48,30246,12.5,73352.3,-7.93,-9.19,-9.19,0,*5E
1507395930.7,30247,12.5,73354.5,-7.93,-9.19,-9.15,0,*53
1507395931.89,30248,12.5,73352.0,-7.93,-9.27,-9.19,0,*5D
1507395933.11,30249,12.5,73352.8,-7.93,-9.19,-9.15,0,*5D
1507395934.3,30250,12.5,73354.8,-7.93,-9.27,-9.19,0,*54
1507395935.52,30251,12.5,73354.0,-7.93,-9.19,-9.15,0,*54
1507395936.71,30252,12.5,73354.5,-7.93,-9.27,-9.19,0,*56
1507395937.99,30253,12.5,73354.5,-7.91,-9.15,-9.15,0,*58
1507395939.21,30254,12.5,73352.8,-7.93,-9.19,-9.15,0,*51
1507395940.5,30255,12.5,73350.0,-7.91,-9.15,-9.11,0,*5A
1507395941.69,30256,12.5,73352.0,-7.93,-9.19,-9.19,0,*5F
1507395942.91,30257,12.5,73350.3,-7.93,-9.27,-9.15,0,*5F
1507395944.13,30258,12.5,73348.8,-7.93,-9.19,-9.15,0,*5D
1507395945.35,30259,12.5,73348.0,-7.93,-9.19,-9.15,0,*5C
1507395946.57,30260,12.5,73350.3,-7.93,-9.19,-9.15,0,*56
1507395947.82,30261,12.5,73352.3,-7.93,-9.15,-9.15,0,*5B
1507395949.03,30262,12.5,73350.5,-7.93,-9.19,-9.15,0,*54
1507395950.29,30263,12.5,73350.0,-7.91,-9.23,-9.11,0,*5A
1507395951.51,30264,12.5,73352.5,-7.93,-9.19,-9.15,0,*52
1507395952.72,30265,12.5,73348.0,-7.93,-9.19,-9.15,0,*53
1507395953.94,30266,12.5,73348.0,-7.93,-9.27,-9.15,0,*5D
1507395955.16,30267,12.5,73350.3,-7.93,-9.19,-9.15,0,*51
1507395956.35,30268,12.5,73350.5,-7.93,-9.19,-9.19,0,*52
1507395957.55,30269,12.5,73354.5,-7.93,-9.19,-9.19,0,*53
1507395958.8,30270,12.5,73352.3,-7.93,-9.15,-9.15,0,*5B
1507395960.02,30271,12.5,73350.3,-7.93,-9.27,-9.15,0,*5B
1507395961.24,30272,12.5,73348.8,-7.93,-9.19,-9.15,0,*55
1507395962.45,30273,12.5,73350.8,-7.93,-9.19,-9.15,0,*54
1507395963.74,30274,12.5,73352.5,-7.91,-9.15,-9.15,0,*5D
1507395965.02,30275,12.5,73350.8,-7.91,-9.15,-9.15,0,*5C
1507395966.21,30276,12.5,73350.0,-7.93,-9.19,-9.19,0,*5D
1507395967.43,30277,12.5,73350.5,-7.93,-9.19,-9.15,0,*50
1507395968.65,30278,12.5,73350.0,-7.93,-9.27,-9.15,0,*52
1507395969.87,30279,12.5,73350.3,-7.93,-9.19,-9.15,0,*5E
1507395971.12,30280,12.5,73344.5,-7.93,-9.15,-9.15,0,*54
1507395972.37,30281,12.5,73348.0,-7.91,-9.11,-9.01,0,*56
1507395973.57,30282,12.5,73348.5,-7.93,-9.19,-9.05,0,*5B
1507395974.82,30283,12.5,73348.8,-7.95,-9.19,-9.15,0,*5D
1507395976.03,30284,12.5,73348.5,-7.93,-9.27,-9.15,0,*51
1507395977.29,30285,12.5,73346.8,-7.93,-9.15,-9.15,0,*51
1507395978.54,30286,12.5,73346.3,-7.93,-9.15,-9.15,0,*52
1507395979.79,30287,12.5,73348.8,-7.93,-9.15,-9.15,0,*53
1507395981.07,30288,12.5,73346.0,-7.91,-9.11,-9.11,0,*5E
1507395982.32,30289,12.5,73346.3,-7.93,-9.15,-9.15,0,*5D
1507395983.57,30290,12.5,73350.0,-7.93,-9.15,-9.15,0,*55
1507395984.79,30291,12.5,73348.8,-7.93,-9.15,-9.05,0,*55
1507395986.02,30292,12.5,73350.8,-7.93,-9.15,-9.05,0,*56
1507395987.3,30293,12.5,73354.3,-7.91,-9.11,-9.11,0,*54
1507395988.53,30294,12.5,73350.0,-7.93,-9.15,-9.05,0,*50
1507395989.78,30295,12.5,73350.5,-7.93,-9.15,-9.15,0,*50
1507395991.03,30296,12.5,73350.5,-7.93,-9.15,-9.15,0,*53
1507395992.28,30297,12.5,73352.8,-7.93,-9.15,-9.15,0,*52
1507395993.48,30298,12.5,73352.3,-7.93,-9.19,-9.05,0,*50
1507395994.73,30299,12.5,73348.8,-7.93,-9.15,-9.15,0,*5C
1507395995.99,30300,12.5,73350.3,-7.91,-9.15,-9.01,0,*5A
1507395997.18,30301,12.5,73350.3,-7.93,-9.27,-9.05,0,*5C
1507395998.43,30302,12.5,73350.0,-7.93,-9.15,-9.15,0,*5F
1507395999.63,30303,12.5,73348.8,-7.93,-9.19,-9.05,0,*53
1507396000.89,30304,12.5,73348.8,-7.91,-9.11,-9.01,0,*5A
1507396002.11,30305,12.5,73350.0,-7.93,-9.19,-9.15,0,*54
1507396003.32,30306,12.5,73348.0,-7.93,-9.19,-9.15,0,*57
1507396004.54,30307,12.5,73348.0,-7.93,-9.19,-9.15,0,*56
1507396005.79,30308,12.5,73350.0,-7.95,-9.27,-9.15,0,*52
1507396007.07,30309,12.5,73344.0,-7.91,-9.15,-9.11,0,*52
1507396008.29,30310,12.5,73348.3,-7.93,-9.19,-9.15,0,*50
1507396009.51,30311,12.5,73348.0,-7.93,-9.19,-9.15,0,*51
1507396010.73,30312,12.5,73350.0,-7.93,-9.27,-9.15,0,*5F
1507396011.96,30313,12.5,73344.3,-7.93,-9.15,-9.05,0,*5E
1507396013.18,30314,12.5,73344.8,-7.93,-9.19,-9.15,0,*54
1507396014.39,30315,12.5,73350.3,-7.93,-9.19,-9.15,0,*55
1507396015.65,30316,12.5,73348.5,-7.91,-9.15,-9.01,0,*5D
1507396016.9,30317,12.5,73350.3,-7.95,-9.19,-9.15,0,*51
1507396018.18,30318,12.5,73350.8,-7.95,-9.15,-9.15,0,*52
1507396019.42,30319,12.5,73354.0,-7.95,-9.19,-9.15,0,*5F
1507396020.67,30320,12.5,73352.3,-7.95,-9.19,-9.15,0,*55
1507396021.91,30321,12.5,73352.5,-7.95,-9.27,-9.15,0,*59
1507396023.16,30322,12.5,73354.5,-7.95,-9.19,-9.15,0,*57
1507396024.41,30323,12.5,73352.3,-7.95,-9.27,-9.15,0,*5B
1507396025.63,30324,12.5,73350.5,-7.95,-9.19,-9.27,0,*50
1507396026.85,30325,12.5,73354.8,-7.95,-9.19,-9.19,0,*5C
1507396028.07,30326,12.5,73350.8,-7.95,-9.19,-9.19,0,*5F
1507396029.32,30327,12.5,73352.8,-7.95,-9.19,-9.15,0,*52
1507396030.57,30328,12.5,73352.3,-7.93,-9.15,-9.11,0,*53
1507396031.85,30329,12.5,73350.3,-7.91,-9.15,-9.11,0,*50
1507396033.07,30330,12.5,73348.5,-7.93,-9.19,-9.15,0,*52
1507396034.29,30331,12.5,73350.0,-7.93,-9.19,-9.15,0,*53
1507396035.51,30332,12.5,73352.5,-7.93,-9.19,-9.15,0,*50
1507396036.73,30333,12.5,73350.5,-7.93,-9.27,-9.15,0,*5C
1507396037.92,30334,12.5,73354.5,-7.93,-9.19,-9.05,0,*57
1507396039.18,30335,12.5,73350.3,-7.91,-9.15,-9.19,0,*55
1507396040.4,30336,12.5,73350.5,-7.95,-9.27,-9.19,0,*53
1507396041.62,30337,12.5,73350.8,-7.95,-9.27,-9.19,0,*52
1507396042.87,30338,12.5,73348.5,-7.95,-9.19,-9.15,0,*5C
1507396044.11,30339,12.5,73350.8,-7.95,-9.27,-9.15,0,*50
1507396045.36,30340,12.5,73350.3,-7.95,-9.27,-9.15,0,*5E
1507396046.6,30341,12.5,73348.0,-7.95,-9.31,-9.15,0,*58
1507396047.85,30342,12.5,73352.3,-7.95,-9.27,-9.15,0,*5C
1507396049.07,30343,12.5,73352.3,-7.95,-9.19,-9.19,0,*5C
1507396050.26,30344,12.5,73348.8,-7.93,-9.27,-9.27,0,*5D
1507396051.46,30345,12.5,73354.3,-7.93,-9.19,-9.27,0,*51
1507396052.68,30346,12.5,73352.3,-7.95,-9.19,-9.19,0,*59
1507396053.9,30347,12.5,73352.8,-7.95,-9.27,-9.19,0,*55
1507396055.12,30348,12.5,73350.3,-7.95,-9.27,-9.19,0,*5A
1507396056.34,30349,12.5,73350.8,-7.95,-9.19,-9.27,0,*5B
1507396057.56,30350,12.5,73352.8,-7.95,-9.27,-9.19,0,*53
1507396058.78,30351,12.5,73350.8,-7.95,-9.27,-9.19,0,*52
1507396060.01,30352,12.5,73348.8,-7.95,-9.27,-9.27,0,*5C
1507396061.23,30353,12.5,73350.0,-7.95,-9.19,-9.19,0,*5D
1507396062.45,30354,12.5,73354.3,-7.95,-9.19,-9.19,0,*5A
1507396063.64,30355,12.5,73352.8,-7.97,-9.23,-9.31,0,*5A
1507396064.86,30356,12.5,73352.3,-7.95,-9.27,-9.19,0,*55
1507396066.08,30357,12.5,73350.8,-7.95,-9.19,-9.27,0,*54
1507396067.3,30358,12.5,73354.3,-7.95,-9.19,-9.19,0,*56
1507396068.53,30359,12.5,73350.8,-7.95,-9.27,-9.19,0,*5A
1507396069.75,30360,12.5,73354.5,-7.95,-9.27,-9.27,0,*5D
1507396070.97,30361,12.5,73354.0,-7.95,-9.27,-9.19,0,*51
1507396072.19,30362,12.5,73350.8,-7.95,-9.19,-9.27,0,*52
1507396073.38,30363,12.5,73354.0,-7.97,-9.23,-9.31,0,*5F
1507396074.58,30364,12.5,73352.3,-7.97,-9.23,-9.23,0,*5B
1507396075.8,30365,12.5,73352.3,-7.95,-9.27,-9.27,0,*58
1507396077.0,30366,12.5,73352.8,-7.97,-9.23,-9.19,0,*50
1507396078.22,30367,12.5,73352.5,-7.95,-9.27,-9.19,0,*57
1507396079.44,30368,12.5,73352.8,-7.95,-9.27,-9.19,0,*58
1507396080.64,30369,12.5,73356.0,-7.93,-9.27,-9.19,0,*5F
1507396081.86,30370,12.5,73350.8,-7.95,-9.27,-9.19,0,*51
1507396083.07,30371,12.5,73352.0,-7.95,-9.31,-9.19,0,*57
1507396084.29,30372,12.5,73350.5,-7.95,-9.27,-9.19,0,*53
1507396085.51,30373,12.5,73352.8,-7.95,-9.27,-9.19,0,*52
1507396086.74,30374,12.5,73352.0,-7.95,-9.19,-9.19,0,*58
1507396087.96,30375,12.5,73352.8,-7.95,-9.27,-9.27,0,*59
1507396089.18,30376,12.5,73356.5,-7.97,-9.37,-9.31,0,*5E
1507396090.4,30377,12.5,73352.5,-7.95,-9.27,-9.27,0,*5B
1507396091.62,30378,12.5,73354.5,-7.95,-9.27,-9.19,0,*59
1507396092.84,30379,12.5,73352.0,-7.95,-9.31,-9.27,0,*52
1507396094.07,30380,12.5,73354.5,-7.95,-9.31,-9.27,0,*54
1507396095.29,30381,12.5,73348.0,-7.97,-9.37,-9.31,0,*56
1507396096.51,30382,12.5,73348.3,-7.95,-9.31,-9.27,0,*56
1507396097.73,30383,12.5,73350.8,-7.95,-9.27,-9.27,0,*50
1507396098.93,30384,12.5,73354.8,-7.97,-9.31,-9.23,0,*56
1507396100.15,30385,12.5,73352.5,-7.95,-9.27,-9.27,0,*56
1507396101.37,30386,12.5,73348.3,-7.95,-9.27,-9.27,0,*55
1507396102.59,30387,12.5,73348.0,-7.95,-9.31,-9.27,0,*53
1507396103.82,30388,12.5,73348.0,-7.95,-9.31,-9.27,0,*5C
1507396105.01,30389,12.5,73350.5,-7.97,-9.31,-9.31,0,*58
1507396106.23,30390,12.5,73352.0,-7.97,-9.37,-9.31,0,*56
1507396107.45,30391,12.5,73348.3,-7.95,-9.27,-9.27,0,*53
1507396108.67,30392,12.5,73346.0,-7.97,-9.37,-9.31,0,*54
1507396109.9,30393,12.5,73352.3,-7.95,-9.31,-9.27,0,*56
1507396111.12,30394,12.5,73354.8,-7.95,-9.27,-9.27,0,*56
1507396112.37,30395,12.5,73352.0,-7.95,-9.41,-9.27,0,*57
1507396113.59,30396,12.5,73352.8,-7.95,-9.31,-9.27,0,*53
1507396114.84,30397,12.5,73352.8,-7.95,-9.41,-9.27,0,*55
1507396116.09,30398,12.5,73348.3,-7.95,-9.41,-9.27,0,*5A
1507396117.29,30399,12.5,73352.0,-7.97,-9.31,-9.27,0,*5E
1507396118.48,30400,12.5,73354.3,-7.97,-9.27,-9.31,0,*59
1507396119.72,30401,12.5,73354.8,-7.95,-9.41,-9.31,0,*5A
1507396120.94,30402,12.5,73352.3,-7.95,-9.31,-9.27,0,*59